Tracking 22438 objects as of 24-Feb-2021
HD Live streaming from Space Station
objects crossing your sky now

CZ-4 DEB

Track CZ-4 DEB now!
10-day predictions


NORAD ID: 20891
Int'l Code: 1990-081BB
Perigee: 867.0 km
Apogee: 1,184.0 km
Inclination: 99.1 °
Period: 105.5 minutes
Semi major axis: 7396 km
RCS: 0.0314 m2 (small)
Launch date: September 3, 1990
Source: People's Republic of China (PRC)
Launch site: Taiyaun Space Center, China (TSC)

Note: This is SATELLITE DEBRIS
aabbcc
Your satellite tracking list
Your tracking list is empty




NASA's NSSDC Master Catalog

Two Line Element Set (TLE):
1 20891U 90081BB  21054.62078172 -.00000010  00000-0  33917-4 0  9992
2 20891  99.0827 180.6936 0214278 266.1204 103.7224 13.64789463511585
Source of the keplerian elements: AFSPC